McKinney, TX

5:30 PM CST on February 12, 2016 (GMT -0600)
Collin County Regional

Weather History for KTKI - November, 2012

Change the Weather History Date:

Wednesday, November 21, 2012

  Actual Average (KADS) Record (KADS)
Temperature  
Mean Temperature 61 °F -  
Max Temperature 78 °F 62 °F 78 °F (2010)
Min Temperature 44 °F 46 °F 33 °F (2008)
Degree Days  
Heating Degree Days 4    
Growing Degree Days 11 (Base 50)    
Moisture  
Dew Point 45 °F    
Average Humidity 62    
Maximum Humidity 90    
Minimum Humidity 33    
Precipitation  
Precipitation 0.00 in - - ()
Sea Level Pressure  
Sea Level Pressure 30.21 in    
Wind  
Wind Speed 3 mph (SSE)    
Max Wind Speed 13 mph    
Max Gust Speed -    
Visibility 10 miles    
Events      
Averages and records for this station are not official NWS values.
T = Trace of Precipitation, MM = Missing Value Source: NWS Daily Summary

Daily Weather History Graph

Daily Weather History Graph

Search for Another Location

Airport or City:

Trip Planner

Search our weather history database for the weather conditions in past years. The results will help you decide how hot, cold, wet, or windy it might be!

Date:

Astronomy

Nov. 21, 2012 Rise Set
Actual Time 7:03 AM CST 5:21 PM CST
Civil Twilight 6:36 AM CST 5:47 PM CST
Nautical Twilight 6:06 AM CST 6:18 PM CST
Astronomical Twilight 5:36 AM CST 6:47 PM CST
Moon 1:21 PM CST (11/21) 12:42 AM CST (11/21)
Length of Visible Light 11h 11m
Length of Day
10h 17m
First Quarter, 62% of the Moon is Illuminated
Nov 21
First Quarter
Nov 28
Full
Dec 6
Last Quarter
Dec 13
New
Dec 19
First Quarter

Hourly Weather History & Observations

Time (CST) Temp. Dew Point Humidity Pressure Visibility Wind Dir Wind Speed Gust Speed Precip Events Conditions
12:53 AM 51.1 °F 45.0 °F 80% 30.21 in 10.0 mi Calm Calm - N/A   Clear
1:53 AM 46.9 °F 42.1 °F 83% 30.20 in 10.0 mi Calm Calm - N/A   Clear
2:53 AM 46.9 °F 43.0 °F 86% 30.22 in 10.0 mi Calm Calm - N/A   Clear
3:53 AM 44.1 °F 41.0 °F 89% 30.22 in 10.0 mi Calm Calm - N/A   Clear
4:53 AM 45.0 °F 42.1 °F 90% 30.23 in 10.0 mi Calm Calm - N/A   Clear
5:53 AM 46.0 °F 42.1 °F 86% 30.25 in 10.0 mi Calm Calm - N/A   Clear
6:53 AM 44.1 °F 41.0 °F 89% 30.28 in 10.0 mi Calm Calm - N/A   Clear
7:53 AM 46.9 °F 42.1 °F 83% 30.30 in 10.0 mi Calm Calm - N/A   Clear
8:53 AM 55.9 °F 48.0 °F 75% 30.30 in 10.0 mi Calm Calm - N/A   Clear
9:53 AM 66.9 °F 50.0 °F 54% 30.29 in 10.0 mi ESE 6.9 mph - N/A   Clear
10:53 AM 70.0 °F 48.9 °F 47% 30.29 in 10.0 mi SE 9.2 mph - N/A   Clear
11:53 AM 73.9 °F 52.0 °F 46% 30.25 in 10.0 mi South 12.7 mph - N/A   Clear
12:53 PM 75.9 °F 48.9 °F 38% 30.21 in 10.0 mi SSE 11.5 mph - N/A   Clear
1:53 PM 78.1 °F 46.9 °F 33% 30.19 in 10.0 mi South 11.5 mph - N/A   Clear
2:53 PM 75.9 °F 46.9 °F 36% 30.17 in 10.0 mi South 8.1 mph - N/A   Clear
3:53 PM 77.0 °F 46.0 °F 33% 30.16 in 10.0 mi South 10.4 mph - N/A   Clear
4:53 PM 71.1 °F 45.0 °F 39% 30.16 in 10.0 mi SSE 4.6 mph - N/A   Clear
5:53 PM 63.0 °F 45.0 °F 52% 30.17 in 10.0 mi South 8.1 mph - N/A   Clear
6:53 PM 64.0 °F 42.1 °F 45% 30.17 in 9.0 mi SSE 4.6 mph - N/A   Clear
7:53 PM 61.0 °F 45.0 °F 56% 30.17 in 10.0 mi SSE 5.8 mph - N/A   Clear
8:53 PM 60.1 °F 45.0 °F 57% 30.17 in 10.0 mi SSE 4.6 mph - N/A   Clear
9:53 PM 57.9 °F 43.0 °F 58% 30.17 in 10.0 mi South 3.5 mph - N/A   Clear
10:53 PM 57.0 °F 44.1 °F 62% 30.15 in 10.0 mi SSE 6.9 mph - N/A   Clear
11:53 PM 55.0 °F 43.0 °F 64% 30.13 in 10.0 mi SSE 3.5 mph - N/A   Clear